Location: Klein M�hlingen
(51.9472°N, 11.7453°E)
Time: 09:45:33
(UTC+00:00)

Cosmos 489 Rocket - Pass Details

Date: 09 April 2020
Orbit: 953 x 983 km, 74.0° (Epoch: 25 May)

Event Time Altitude Azimuth Distance (km) Brightness Sun altitude
Rises 20:04:31 0° 334° (NNW) 3,641 8.7 -17.7°
Reaches altitude 10° 20:07:03 10° 336° (NNW) 2,692 7.8 -18.0°
Maximum altitude 20:13:17 80° 63° (ENE) 976 4.4 -18.7°
Enters shadow 20:16:27 31° 148° (SSE) 1,605 5.1 -19.0°
